Weather in Zelenga

Russia / Astrakhan Oblast     46°10′38″N   48°36′31″E
В апреле 2022 года жителям России запретили посещать сайт meteo.paraplan.net по решению Генеральной прокуратуры. Аудитория сайта уменьшилась в 10 раз. Владельцы сайта не видят смысла в поддержке погодного сервера в таких условиях. Сайт будет закрыт в октябре.
temp.,
°C
wind,
m/s
gust,
m/s
humid.,
%
clouds,
%
prec.,
mm/h
press.,
hPa
HPBL,
m
4 october, tue
tue401:00+18ese3858100 0.0 1017375
04:00+18se71245100 0.1 1017666
07:00+18se81343100 0.0 1017522
10:00+20se9113219 0.0 1019799
13:00+21se101131100 0.0 1019913
16:00+20se81129100 0.0 1019888
19:00+16ese41052100 0.0 1020282
22:00+16e356591 0.0 102190
5 october, wed
wed501:00+16ese4116669 0.0 1020191
04:00+16ese511615 0.0 1021248
07:00+15ese47665 0.0 1021130
10:00+21se673689 0.0 1021679
13:00+23se6632100 0.0 1021885
16:00+22sse563698 0.0 1021851
19:00+17sse3359100 0.0 102239
22:00+16ssw1169100 0.0 102211
6 october, thu
thu601:00+16nw3772100 0.0 1022153
04:00+15nnw51087100 0.0 1023356
07:00+15nnw3790100 0.0 1023308
10:00+17nnw4559100 0.0 1024670
13:00+20nw5533100 0.1 10241111
16:00+19wnw453899 0.3 10241094
19:00+15w334973 0.0 102452
22:00+13nw34560 0.0 102558
7 october, fri
fri701:00+12nnw34610 0.0 102561
04:00+11nnw22625 0.0 102515
07:00+10nw22620 0.0 102611
10:00+16nw33381 0.0 1026733
13:00+20nw34322 0.0 10251831
16:00+20nw44314 0.0 10241787
19:00+15nnw22475 0.0 102523
22:00+13sse11565 0.0 102510
8 october, sat
sat801:00+12ssw11605 0.0 102510
04:00+12wsw01622 0.0 102510
07:00+11sse11645 0.0 102610
10:00+18e22415 0.0 1026492
13:00+22ese44335 0.0 10251491
16:00+20se55385 0.0 10251128
19:00+14se36635 0.0 1025109
22:00+13ese38735 0.0 1025152